Simultaneous Nadir Overpasses (SNOs) Predictions

Prediction of SNOs between GOES-15 and LANDSAT-8 Satellite Orbit:

Table of predicted SNOs for the next 14.0 days since TLE Epoch: 3/25/2023
Index Date Time (GOES-15) GOES-15 Lat,Lon LANDSAT-8 Lat,Lon Distance(km) Time Diff (sec)
1 03/25/2023 06:45:42 0.12,-127.96 -0.06,-128.71 85.67 80
2 03/27/2023 06:36:11 0.13,-128.03 0.62,-125.77 257.34 80
3 03/27/2023 18:54:46 -0.14,-128.08 0.50,-130.92 324.07 80
4 03/29/2023 18:45:14 -0.14,-128.14 -0.17,-127.97 18.61 80
5 03/31/2023 18:33:01 -0.14,-128.20 -0.81,-125.02 361.26 80
6 04/01/2023 06:51:45 0.15,-128.18 -0.27,-130.21 231.20 80
7 04/03/2023 06:42:11 0.15,-128.23 0.35,-127.25 111.65 80
8 04/03/2023 19:00:46 -0.16,-128.28 0.73,-132.41 469.54 80
9 04/05/2023 06:29:57 0.15,-128.29 1.01,-124.29 454.50 80
10 04/05/2023 18:48:32 -0.16,-128.33 0.07,-129.45 126.76 80
11 04/07/2023 18:38:57 -0.16,-128.38 -0.58,-126.48 215.66 80
